EW4074 Weather Reports


Display with metric or nautical units.
time (UTC)temp
F
wind
direction
speed
MPH
gust
MPH
rain 1hr
in
rain 24hr
in
rain mn
in
humidity
%
barometer
mb
20260506090248 65 161 1.0 5.0 0.00 0.00 0.00 64 1036.0
20260506090008 65 161 2.0 5.0 0.00 0.00 0.00 65 1036.0
20260506085233 65 165 1.0 4.0 0.00 0.00 0.00 64 1036.0
20260506084728 65 159 1.0 3.0 0.00 0.00 0.00 64 1036.0
20260506084217 65 213 1.0 3.0 0.00 0.00 0.00 64 1036.0
20260506083716 65 197 2.0 4.0 0.00 0.00 0.00 64 1036.0
20260506083436 65 163 2.0 5.0 0.00 0.00 0.00 64 1036.0
20260506082924 65 209 2.0 5.0 0.00 0.00 0.00 64 1036.0
20260506082155 65 139 2.0 5.0 0.00 0.00 0.00 64 1036.0
20260506081652 65 150 2.0 5.0 0.00 0.00 0.00 64 1036.0
20260506081147 65 139 1.0 4.0 0.00 0.00 0.00 64 1036.0
20260506080640 64 162 1.0 4.0 0.00 0.00 0.00 65 1036.0
20260506080134 64 166 1.0 5.0 0.00 0.00 0.00 65 1035.9
20260506073057 62 167 0.0 1.0 0.00 0.00 0.00 67 1036.0
20260506073036 62 166 0.0 1.0 0.00 0.00 0.00 68 1036.0
20260506072038 62 161 0.0 0.0 0.00 0.00 0.00 68 1036.0
20260506071801 62 161 0.0 0.0 0.00 0.00 0.00 67 1036.0
20260506071126 63 161 0.0 0.0 0.00 0.00 0.00 67 1036.0
20260506062441 67 140 1.0 4.0 0.00 0.00 0.00 57 1036.5
20260506062154 67 163 1.0 4.0 0.00 0.00 0.00 56 1036.7
20260506061428 68 209 1.0 4.0 0.00 0.00 0.00 56 1036.7
20260506060917 68 171 1.0 4.0 0.00 0.00 0.00 56 1036.7
20260506060415 68 223 1.0 4.0 0.00 0.00 0.00 55 1036.9
20260506051315 69 246 1.0 5.0 0.00 0.00 0.00 53 1037.4
20260506051031 69 246 0.0 5.0 0.00 0.00 0.00 53 1037.4
20260506050530 69 205 1.0 5.0 0.00 0.00 0.00 53 1037.3
20260506044746 70 223 0.0 2.0 0.00 0.00 0.00 52 1037.4
20260506044239 70 214 1.0 4.0 0.00 0.00 0.00 52 1037.4
20260506043733 70 206 1.0 5.0 0.00 0.00 0.00 51 1037.4
20260506043449 70 209 1.0 5.0 0.00 0.00 0.00 51 1037.2
20260506042717 70 205 2.0 7.0 0.00 0.00 0.00 51 1037.2
20260506042210 70 252 2.0 7.0 0.00 0.00 0.00 51 1037.2
20260506041709 70 182 2.0 7.0 0.00 0.00 0.00 51 1037.3
20260506041203 70 146 1.0 7.0 0.00 0.00 0.00 51 1037.3
20260506040658 69 213 1.0 6.0 0.00 0.00 0.00 51 1037.3
20260506040151 70 196 1.0 5.0 0.00 0.00 0.00 51 1037.3
20260506035646 70 221 1.0 6.0 0.00 0.00 0.00 50 1037.3
20260506035139 70 148 2.0 6.0 0.00 0.00 0.00 50 1037.3
20260506034629 70 156 2.0 8.0 0.00 0.00 0.00 49 1037.3
20260506034613 70 196 2.0 8.0 0.00 0.00 0.00 49 1037.3
20260506033834 71 237 1.0 6.0 0.00 0.00 0.00 49 1037.4
20260506033115 71 148 1.0 6.0 0.00 0.00 0.00 49 1037.4
20260506032609 71 202 2.0 6.0 0.00 0.00 0.00 48 1037.4
20260506032103 71 166 3.0 7.0 0.00 0.00 0.00 48 1037.4
20260506031557 71 219 3.0 7.0 0.00 0.00 0.00 48 1037.4
20260506031049 71 206 2.0 7.0 0.00 0.00 0.00 48 1037.4
20260506030545 71 221 2.0 6.0 0.00 0.00 0.00 48 1037.4
20260506030303 71 238 2.0 6.0 0.00 0.00 0.00 48 1037.4
20260506025533 71 151 2.0 6.0 0.00 0.00 0.00 47 1037.4
20260506025512 71 223 2.0 6.0 0.00 0.00 0.00 47 1037.4
20260506024521 71 140 2.0 7.0 0.00 0.00 0.00 47 1037.4
20260506024015 71 163 2.0 7.0 0.00 0.00 0.00 47 1037.4
20260506023728 71 167 2.0 5.0 0.00 0.00 0.00 47 1037.5
20260506023003 71 229 1.0 4.0 0.00 0.00 0.00 47 1037.5
20260506022457 71 206 1.0 6.0 0.00 0.00 0.00 46 1037.5
20260506021951 71 228 2.0 7.0 0.00 0.00 0.00 46 1037.3
20260506021446 71 216 3.0 11.0 0.00 0.00 0.00 46 1037.3
20260506020935 71 238 3.0 11.0 0.00 0.00 0.00 45 1037.3
20260506020431 71 239 2.0 8.0 0.00 0.00 0.00 45 1037.3
20260506015926 71 236 2.0 6.0 0.00 0.00 0.00 45 1037.3
20260506015426 71 208 2.0 5.0 0.00 0.00 0.00 45 1037.3
20260506014926 71 252 2.0 7.0 0.00 0.00 0.00 44 1037.4
20260506014425 72 124 2.0 7.0 0.00 0.00 0.00 44 1037.4
20260506013926 72 242 1.0 6.0 0.00 0.00 0.00 44 1037.4
20260506013510 72 232 2.0 6.0 0.00 0.00 0.00 43 1037.1
20260506012652 73 197 2.0 8.0 0.00 0.00 0.00 43 1037.1
20260506011929 73 234 2.0 8.0 0.00 0.00 0.00 42 1037.0
20260506011423 73 231 2.0 8.0 0.00 0.00 0.00 42 1037.0
20260506011130 73 244 2.0 8.0 0.00 0.00 0.00 42 1037.0
20260506010412 73 226 3.0 10.0 0.00 0.00 0.00 41 1037.0
20260506005911 74 137 3.0 10.0 0.00 0.00 0.00 42 1037.0
20260506005411 74 245 2.0 8.0 0.00 0.00 0.00 41 1037.0
20260506004911 74 194 3.0 8.0 0.00 0.00 0.00 41 1036.6
20260506004411 74 166 3.0 13.0 0.00 0.00 0.00 41 1036.6
20260506003912 74 146 3.0 13.0 0.00 0.00 0.00 41 1036.6
20260506003412 75 148 3.0 8.0 0.00 0.00 0.00 41 1036.5
20260506002916 75 251 3.0 8.0 0.00 0.00 0.00 41 1036.5
20260506002400 75 199 4.0 13.0 0.00 0.00 0.00 41 1036.5
20260506001847 75 139 4.0 13.0 0.00 0.00 0.00 41 1036.5
20260506001335 76 242 4.0 11.0 0.00 0.00 0.00 41 1036.5
20260506000824 76 218 3.0 9.0 0.00 0.00 0.00 41 1036.5
20260506000312 76 254 3.0 9.0 0.00 0.00 0.00 41 1036.2
20260505235811 76 213 3.0 9.0 0.00 0.00 0.00 41 1036.2
20260505235305 76 227 4.0 10.0 0.00 0.00 0.00 41 1036.2
20260505234758 77 195 3.0 10.0 0.00 0.00 0.00 41 1036.1
20260505234252 77 192 4.0 17.0 0.00 0.00 0.00 41 1036.1
20260505234008 77 169 4.0 17.0 0.00 0.00 0.00 41 1036.1
20260505233239 77 140 4.0 9.0 0.00 0.00 0.00 42 1036.1
20260505232733 77 150 3.0 11.0 0.00 0.00 0.00 42 1036.1
20260505232447 78 198 3.0 11.0 0.00 0.00 0.00 42 1036.1
20260505231719 78 141 3.0 11.0 0.00 0.00 0.00 41 1036.0
20260505231215 78 131 4.0 10.0 0.00 0.00 0.00 41 1036.0
20260505230703 78 159 3.0 10.0 0.00 0.00 0.00 40 1036.0
20260505230203 78 187 2.0 10.0 0.00 0.00 0.00 40 1036.1
20260505225655 78 219 2.0 10.0 0.00 0.00 0.00 39 1036.1
20260505225151 78 242 2.0 6.0 0.00 0.00 0.00 40 1036.1
20260505224644 78 216 3.0 10.0 0.00 0.00 0.00 40 1036.2
20260505224139 78 190 3.0 10.0 0.00 0.00 0.00 39 1036.2
20260505223631 78 236 3.0 8.0 0.00 0.00 0.00 39 1036.2
20260505223120 79 229 3.0 14.0 0.00 0.00 0.00 39 1036.4
20260505222620 79 269 3.0 14.0 0.00 0.00 0.00 39 1036.4
20260505222113 79 169 3.0 12.0 0.00 0.00 0.00 39 1036.2
20260505221607 80 154 3.0 12.0 0.00 0.00 0.00 39 1036.2
20260505221102 80 256 3.0 10.0 0.00 0.00 0.00 37 1036.2
20260505220555 80 267 4.0 12.0 0.00 0.00 0.00 38 1036.1
20260505220049 80 155 4.0 15.0 0.00 0.00 0.00 38 1036.1
20260505215800 80 224 3.0 15.0 0.00 0.00 0.00 38 1036.1
20260505215038 80 115 4.0 10.0 0.00 0.00 0.00 38 1036.1
20260505214527 80 238 3.0 11.0 0.00 0.00 0.00 38 1036.1
20260505214026 80 180 4.0 11.0 0.00 0.00 0.00 38 1036.1
20260505213519 80 241 5.0 21.0 0.00 0.00 0.00 37 1036.1
20260505213013 81 113 4.0 21.0 0.00 0.00 0.00 37 1036.1
20260505212507 81 239 4.0 14.0 0.00 0.00 0.00 38 1036.1
20260505211956 81 204 3.0 11.0 0.00 0.00 0.00 38 1036.0
20260505211457 81 202 4.0 11.0 0.00 0.00 0.00 37 1036.0
20260505211211 81 165 5.0 11.0 0.00 0.00 0.00 37 1036.0
20260505210445 81 213 5.0 11.0 0.00 0.00 0.00 39 1036.0
20260505205937 81 188 5.0 14.0 0.00 0.00 0.00 38 1036.0
20260505205432 81 205 5.0 15.0 0.00 0.00 0.00 38 1036.0
20260505204925 81 275 4.0 15.0 0.00 0.00 0.00 38 1036.0
20260505204415 81 320 4.0 13.0 0.00 0.00 0.00 39 1036.0
20260505203915 81 180 4.0 13.0 0.00 0.00 0.00 38 1036.0
20260505203415 81 300 4.0 13.0 0.00 0.00 0.00 38 1036.0
20260505202915 81 278 5.0 16.0 0.00 0.00 0.00 38 1036.0
20260505202419 81 213 6.0 16.0 0.00 0.00 0.00 38 1036.0
20260505201914 82 153 4.0 10.0 0.00 0.00 0.00 38 1036.1
20260505201414 82 134 4.0 15.0 0.00 0.00 0.00 38 1036.1
20260505200914 82 296 5.0 15.0 0.00 0.00 0.00 37 1036.1
20260505200416 82 255 5.0 12.0 0.00 0.00 0.00 38 1036.1
20260505200401 82 223 5.0 12.0 0.00 0.00 0.00 36 1036.1
20260505195633 83 296 4.0 15.0 0.00 0.00 0.00 39 1036.1
20260505194914 83 157 4.0 15.0 0.00 0.00 0.00 37 1036.4
20260505194413 83 155 4.0 14.0 0.00 0.00 0.00 37 1036.4
20260505193906 83 169 4.0 14.0 0.00 0.00 0.00 39 1036.4
20260505193402 83 279 5.0 14.0 0.00 0.00 0.00 40 1036.4
20260505192854 83 155 6.0 14.0 0.00 0.00 0.00 39 1036.4
20260505192348 83 158 6.0 14.0 0.00 0.00 0.00 38 1036.4
20260505191843 83 281 7.0 14.0 0.00 0.00 0.00 40 1036.6
20260505191336 83 209 6.0 14.0 0.00 0.00 0.00 39 1036.6
20260505190826 83 123 5.0 13.0 0.00 0.00 0.00 40 1036.6
20260505190324 83 236 5.0 13.0 0.00 0.00 0.00 39 1036.9
20260505185814 83 246 5.0 13.0 0.00 0.00 0.00 40 1036.9
20260505185312 82 164 5.0 13.0 0.00 0.00 0.00 42 1036.9
20260505184807 82 184 5.0 12.0 0.00 0.00 0.00 40 1037.0
20260505184515 83 144 5.0 11.0 0.00 0.00 0.00 42 1037.0
20260505183754 82 142 4.0 10.0 0.00 0.00 0.00 42 1037.0
20260505183516 82 157 4.0 14.0 0.00 0.00 0.00 43 1037.3
20260505182744 82 172 5.0 14.0 0.00 0.00 0.00 40 1037.3
20260505182236 82 253 4.0 13.0 0.00 0.00 0.00 42 1037.3
20260505182206 82 246 4.0 13.0 0.00 0.00 0.00 43 1037.5
20260505181224 82 216 4.0 11.0 0.00 0.00 0.00 44 1037.5
20260505180713 82 340 3.0 8.0 0.00 0.00 0.00 44 1037.5
20260505180212 82 263 4.0 10.0 0.00 0.00 0.00 45 1037.5
20260505175706 82 141 5.0 19.0 0.00 0.00 0.00 42 1037.5
20260505175200 82 248 4.0 19.0 0.00 0.00 0.00 43 1037.5
20260505174654 82 205 3.0 10.0 0.00 0.00 0.00 43 1037.7
20260505174149 81 249 4.0 15.0 0.00 0.00 0.00 44 1037.7
20260505173642 81 248 4.0 15.0 0.00 0.00 0.00 44 1037.7
20260505173132 81 246 4.0 16.0 0.00 0.00 0.00 45 1037.9
20260505172630 81 244 4.0 16.0 0.00 0.00 0.00 45 1037.9
20260505172120 81 207 3.0 12.0 0.00 0.00 0.00 45 1038.1
20260505171613 80 202 4.0 12.0 0.00 0.00 0.00 45 1038.1
20260505171112 80 149 3.0 10.0 0.00 0.00 0.00 44 1038.1
20260505170606 80 196 4.0 12.0 0.00 0.00 0.00 45 1038.2
20260505170100 80 153 4.0 12.0 0.00 0.00 0.00 46 1038.2
20260505165550 80 227 4.0 14.0 0.00 0.00 0.00 45 1038.2
20260505165049 80 207 5.0 16.0 0.00 0.00 0.00 46 1038.5
20260505164542 80 273 5.0 11.0 0.00 0.00 0.00 47 1038.5
20260505164037 80 225 5.0 11.0 0.00 0.00 0.00 46 1038.5
20260505163530 80 130 4.0 11.0 0.00 0.00 0.00 47 1038.5
20260505163025 80 126 4.0 11.0 0.00 0.00 0.00 48 1038.5
20260505162734 80 186 5.0 15.0 0.00 0.00 0.00 47 1038.5
20260505162008 80 193 5.0 15.0 0.00 0.00 0.00 45 1038.6
20260505161506 79 169 5.0 15.0 0.00 0.00 0.00 48 1038.6
20260505161000 79 248 4.0 11.0 0.00 0.00 0.00 50 1038.6
20260505160719 79 129 4.0 13.0 0.00 0.00 0.00 47 1039.0
20260505153137 78 235 5.0 14.0 0.00 0.00 0.00 50 1039.1
20260505152407 78 102 4.0 14.0 0.00 0.00 0.00 52 1039.1
20260505151900 78 135 4.0 8.0 0.00 0.00 0.00 53 1039.1
20260505151354 78 201 4.0 10.0 0.00 0.00 0.00 52 1039.1
20260505150843 77 254 5.0 13.0 0.00 0.00 0.00 53 1039.1
20260505150342 77 181 5.0 13.0 0.00 0.00 0.00 52 1039.1
20260505140222 75 130 3.0 7.0 0.00 0.00 0.00 54 1038.9
20260505130156 72 252 3.0 9.0 0.00 0.00 0.00 57 1039.3
20260505124656 71 11 2.0 8.0 0.00 0.00 0.00 58 1039.5
20260505124155 70 197 2.0 9.0 0.00 0.00 0.00 59 1039.5
20260505123655 69 229 2.0 9.0 0.00 0.00 0.00 59 1039.5
20260505123153 69 247 2.0 5.0 0.00 0.00 0.00 60 1039.7
20260505122657 69 261 3.0 8.0 0.00 0.00 0.00 61 1039.7
20260505122152 68 149 2.0 9.0 0.00 0.00 0.00 61 1039.7
20260505121904 67 212 3.0 9.0 0.00 0.00 0.00 62 1039.8
20260505121138 67 336 2.0 8.0 0.00 0.00 0.00 63 1039.8
20260505120638 66 244 1.0 5.0 0.00 0.00 0.00 65 1039.8
20260505120138 65 125 1.0 6.0 0.00 0.00 0.00 66 1039.7
20260505115638 64 252 1.0 6.0 0.00 0.00 0.00 66 1039.7
20260505115137 64 165 1.0 3.0 0.00 0.00 0.00 67 1039.7
20260505114637 64 156 1.0 5.0 0.00 0.00 0.00 68 1039.7
20260505114140 63 237 0.0 5.0 0.00 0.00 0.00 68 1039.7
20260505113641 63 223 0.0 3.0 0.00 0.00 0.00 68 1039.7
20260505113134 62 188 0.0 3.0 0.00 0.00 0.00 69 1039.2
20260505112624 62 211 1.0 3.0 0.00 0.00 0.00 69 1039.2
20260505112122 62 238 1.0 4.0 0.00 0.00 0.00 69 1039.2
20260505111622 62 196 1.0 4.0 0.00 0.00 0.00 69 1039.1
20260505111345 62 250 0.0 2.0 0.00 0.00 0.00 69 1039.1
20260505110622 61 124 0.0 3.0 0.00 0.00 0.00 70 1039.1
20260505110122 61 106 0.0 3.0 0.00 0.00 0.00 70 1038.7
20260505102048 61 157 1.0 3.0 0.00 0.00 0.00 69 1038.3
20260505101543 61 120 1.0 4.0 0.00 0.00 0.00 69 1038.3
20260505101300 61 215 0.0 4.0 0.00 0.00 0.00 70 1038.3
20260505100525 61 172 0.0 4.0 0.00 0.00 0.00 70 1038.2
20260505100246 62 204 0.0 4.0 0.00 0.00 0.00 69 1038.2
20260505095514 62 168 1.0 4.0 0.00 0.00 0.00 69 1038.2
20260505095011 62 203 1.0 4.0 0.00 0.00 0.00 69 1038.1
20260505094506 62 166 0.0 2.0 0.00 0.00 0.00 68 1038.1
20260505094221 62 180 1.0 7.0 0.00 0.00 0.00 67 1038.1
20260505093454 63 169 1.0 7.0 0.00 0.00 0.00 67 1038.1
20260505093441 63 209 1.0 6.0 0.00 0.00 0.00 67 1038.1
20260505092442 63 192 2.0 5.0 0.00 0.00 0.00 66 1038.1
20260505091936 63 113 2.0 9.0 0.00 0.00 0.00 66 1038.1
20260505091430 63 242 2.0 9.0 0.00 0.00 0.00 66 1038.1
20260505090923 63 144 3.0 9.0 0.00 0.00 0.00 66 1038.1